Showing default

DIRECTV 14, 40333

Orbit data source: Space-Track

DIRECTV 14, 40333 is a payload satellite owned by DirecTV (US) in GEO that was launched on Sat, 06 Dec 2014 UTC via an ARIANE 5ECA launch vehicle from the French Guiana (FRGUI). Payload-class satellites include a variety of spacecraft equipped with specific instruments for various scientific and technological missions. These include communications satellites like Starlink; space stations such as the ISS; scientific satellites like the Hubble; Earth observation satellites from companies like Planet Labs, Umbra, and HawkEye 360; GPS; miniature CubeSats for education and research; and military/defense satellites.

Loading next visibility...
Identifier
40333, 2014-078B
Orbit
GEO
Country
Flag of USUS
Related business
Manufacturer
SS/Loral (MDA)
Mission
Operational Commercial Communications
Bus & Motor
LS-1300, R-4D
Mass
6,300 kg wet, 4,500 kg dry
Launch date (UTC)
2014-12-06 (12 years ago)
Launch vehicle
ARIANE 5ECA
Launch site
French Guiana (FRGUI)
Object type
Payload
Rocket body
Debris
Shape & HBR
Box + 2 Pan, 16.3 m
Radar Cross Section
31.309 m², Large (>1 m²)

Expand to show TLE details & history
Last TLE update: 2 days ago

TLE from 2 days ago
0 DIRECTV 14
1 40333U 14078B   26171.35461541 -.00000130  00000-0  00000+0 0  9993
2 40333   0.0110  22.7054 0000249 291.5498 342.7307  1.00270509 42073
Epoch: 2026-06-20T08:30Z
TLE epoch observation values (Epoch: 2026-06-20T08:30:38.771Z)
Latitude
-0.02851°
Longitude
-99.23459°
Altitude
35,785.443 km
Speed
3.075 km/s
True Right ascension
19h 47m 59s
True Declination
0° 01' 43"
Sunlit
Object was in daylight at epoch
Visualization orbit readout
Latitude
Unknown
Longitude
Unknown
Altitude
Unknown
Speed
Unknown
Apparent Right ascension
Unknown
Apparent Declination
Unknown
Sunlit
N/A
Visualization observer readout
Local Sidereal Time
21:39:36
Azimuth
Unknown
Elevation
Unknown
Doppler factor
Unknown
Orbital elements
Apogee altitude
35,789.073 km
Perigee altitude
35,786.973 km
Semi-major axis
42,166.16 km
Eccentricity
0.00002
Inclination
0.011°
RAAN
22.7054°
Arg. of periapsis
291.5498°
True anomaly
342.72985°
Mean anomaly
342.7307°
Eccentric anomaly
342.73028°
Mean motion
0.25067 °/min
Orbital period
1,436.17 mins
BSTAR
0
Loading maneuver chart data...
Computing Atmospheric mass density...
Loading historical data...
Loading historical data...
Loading historical data...
Loading historical data...
Loading historical data...
Loading historical data...
Loading historical data...
Other satellites on launch #78 in the year 2014 (2014-12-06 UTC)

Documentation

Showing up to 5 results
|